Regional Weather Roundup
Issued by NWS

Home | Current Version | Previous Version | Graphics & Text | Print | Product List | Glossary On
Versions: 1 2 3 4 5 6 7 8 9 10 11 12 13 14 15 16 17 18 19 20 21 22 23 24 25 26 27 28 29 30 31 32 33 34 35 36 37 38 39 40 41 42 43 44 45 46 47 48 49 50
000
ASUS45 KABQ 181010
RWRNM
NEW MEXICO REGIONAL WEATHER ROUNDUP
NATIONAL WEATHER SERVICE ALBUQUERQUE NM
300 AM MST THU JAN 18 2018

NOTE: "FAIR" MEANS FEW OR NO CLOUDS BELOW 12,000 FEET AGL WITH NO
       SIGNIFICANT WEATHER OR OBSTRUCTIONS TO VISION.

      THIS PRODUCT IS RELEASED AS TWO VERSIONS.  ONE VERSION NEAR
      THE TOP OF THE HOUR CONTAINING PRELIMINARY DATA FROM ALBUQUERQUE
      AND OTHER STATIONS.  A FINAL VERSION WITH ADDITIONAL DATA IS
      ISSUED ABOUT 10 MINUTES AFTER THE HOUR.

NMZ501-503-504-510>518-181100-
NORTHWEST PLATEAU/NORTHCENTRAL MOUNTAINS

CITY           SKY/WX    TMP DP  RH WIND       PRES   REMARKS
FARMINGTON     FAIR      18  14  84 E7        30.34S WCI   9
LOS ALAMOS     FAIR      29  14  54 CALM      30.31S
SANTA FE       FAIR      20  12  71 N9        30.30S WCI   9
TAOS           FAIR       9   0  67 N8        30.35S WCI  -3
ANGEL FIRE     FAIR      -1  -7  76 CALM      30.33F

$$
NMZ402-403-502-505>509-181100-
WESTCENTRAL MOUNTAINS/SOUTHWEST MOUNTAINS

CITY           SKY/WX    TMP DP  RH WIND       PRES   REMARKS
GALLUP         FAIR      16  11  80 E3        30.33F
GRANTS         FAIR      17   8  70 NW10      30.36F WCI   4
SILVER CITY    FAIR      22  13  70 N8        30.28F WCI  12

$$
NMZ407-409-411-412-181100-
SOUTHERN DESERTS

CITY           SKY/WX    TMP DP  RH WIND       PRES   REMARKS
DEMING         FAIR      20   8  60 NW6       30.31S WCI  12
LAS CRUCES     FAIR      23  10  55 CALM      30.30F
HOLLOMAN AFB   FAIR      17   4  55 MISG      30.34S
ALAMOGORDO     FAIR      19   5  53 NW7       30.32S WCI  10
T OR C         FAIR      26  10  50 N5        30.30S WCI  20

$$
NMZ519>523-181100-
CENTRAL VALLEYS/CENTRAL HIGHLANDS

CITY           SKY/WX    TMP DP  RH WIND       PRES   REMARKS
ALBUQUERQUE    FAIR      24  13  62 CALM      30.33S
MORIARTY ARPT  FAIR      10   5  81 NE5       30.31F WCI   2
CLINES CORNERS FAIR      27  14  58 NW10      30.28F WCI  17
BELEN          FAIR      17   8  70 NW5       30.33F WCI  10
SOCORRO        FAIR      23  11  61 NW9       30.33S WCI  13

$$
NMZ524>526-539-540-181100-
SOUTHCENTRAL MOUNTAINS

CITY           SKY/WX    TMP DP  RH WIND       PRES   REMARKS
RUIDOSO        FAIR      28   9  43 NW5       30.27F WCI  23

$$
NMZ527>531-181100-
NORTHEAST HIGHLANDS/NORTHEAST PLAINS

CITY           SKY/WX    TMP DP  RH WIND       PRES   REMARKS
LAS VEGAS      FAIR      25   3  38 CALM      30.26S
RATON          FAIR      15   4  61 NE7       30.24F WCI   5
CLAYTON        FAIR      32   2  27 NW13      30.20F WCI  22

$$
NMZ532>537-181100-
EASTCENTRAL PLAINS

CITY           SKY/WX    TMP DP  RH WIND       PRES   REMARKS
TUCUMCARI      FAIR      20   9  62 W8        30.26S WCI  10
CANNON AFB     FAIR      20   4  49 W10       30.30F WCI   9
CLOVIS AIRPORT FAIR      14   5  67 W6        30.29F WCI   5

$$
NMZ028-029-538-181100-
SOUTHEAST PLAINS

CITY           SKY/WX    TMP DP  RH WIND       PRES   REMARKS
ROSWELL        FAIR      14   0  53 CALM      30.32F
ARTESIA        FAIR      16  -4  41 W5        30.35F WCI   9
CARLSBAD       FAIR      18   2  49 S6        30.34F WCI  10
HOBBS          FAIR      14  -6  41 CALM      30.34F


$$




USA.gov is the U.S. government's official web portal to all federal, state and local government web resources and services.